Radiation Dose at Monitoring Post of Fukushima Daini Nuclear Power Station
Date,Time,MP-1(microSv/h),MP-2(microSv/h),MP-3(microSv/h),MP-4(microSv/h),MP-5(microSv/h),MP-6(microSv/h),MP-7(microSv/h),Wind Direction,Wind Velocity(m/s),Rain
2015/05/11,00:00,0.563,0.340,0.604,0.558,0.482,0.259,0.235,north-northwest,2.1,No
2015/05/11,00:10,0.561,0.340,0.602,0.562,0.484,0.260,0.236,north-northwest,1.4,No
2015/05/11,00:20,0.560,0.340,0.605,0.559,0.483,0.259,0.236,west-northwest,0.8,No
2015/05/11,00:30,0.562,0.340,0.604,0.558,0.481,0.259,0.236,west-northwest,1.8,No
2015/05/11,00:40,0.562,0.340,0.602,0.561,0.482,0.260,0.236,northwest,1.9,No
2015/05/11,00:50,0.562,0.338,0.605,0.559,0.481,0.259,0.235,north-northwest,1.4,No
2015/05/11,01:00,0.566,0.340,0.603,0.560,0.480,0.260,0.236,northwest,1.5,No
2015/05/11,01:10,0.560,0.341,0.602,0.561,0.484,0.259,0.235,west-southwest,1.5,No
2015/05/11,01:20,0.563,0.340,0.606,0.559,0.480,0.261,0.236,west-southwest,0.9,No
2015/05/11,01:30,0.563,0.339,0.604,0.558,0.482,0.259,0.237,northwest,1.5,No
2015/05/11,01:40,0.561,0.340,0.602,0.560,0.481,0.259,0.235,northwest,1.4,No
2015/05/11,01:50,0.563,0.339,0.605,0.561,0.480,0.260,0.236,west-southwest,2.4,No
2015/05/11,02:00,0.560,0.338,0.602,0.559,0.482,0.260,0.235,west,2.1,No
2015/05/11,02:10,0.559,0.340,0.600,0.560,0.482,0.259,0.235,west-northwest,2.3,No
2015/05/11,02:20,0.563,0.339,0.604,0.559,0.481,0.259,0.235,west,3.3,No
2015/05/11,02:30,0.561,0.340,0.605,0.557,0.481,0.261,0.235,west,3.6,No
2015/05/11,02:40,0.562,0.341,0.603,0.559,0.483,0.259,0.236,west-northwest,4.6,No
2015/05/11,02:50,0.562,0.340,0.603,0.559,0.482,0.260,0.235,west-northwest,4.4,No
2015/05/11,03:00,0.561,0.339,0.606,0.558,0.481,0.260,0.236,northwest,4.3,No
2015/05/11,03:10,0.564,0.339,0.601,0.559,0.483,0.260,0.235,west-northwest,4.9,No
2015/05/11,03:20,0.563,0.340,0.602,0.559,0.480,0.260,0.235,west-northwest,2.7,No
2015/05/11,03:30,0.560,0.338,0.607,0.556,0.481,0.260,0.236,west-northwest,2.2,No
2015/05/11,03:40,0.565,0.339,0.601,0.560,0.482,0.260,0.235,-,CALM,No
2015/05/11,03:50,0.561,0.339,0.603,0.560,0.483,0.259,0.236,north,1.9,No
2015/05/11,04:00,0.559,0.339,0.604,0.558,0.480,0.259,0.235,north-northwest,3.6,No
2015/05/11,04:10,0.563,0.339,0.604,0.559,0.481,0.260,0.235,northwest,1.9,No
2015/05/11,04:20,0.563,0.340,0.601,0.561,0.481,0.259,0.235,west-northwest,1.1,No
2015/05/11,04:30,0.563,0.340,0.604,0.558,0.479,0.259,0.233,north-northwest,2.2,No
2015/05/11,04:40,0.564,0.339,0.601,0.558,0.483,0.260,0.235,north-northwest,2.8,No
2015/05/11,04:50,0.561,0.340,0.602,0.560,0.481,0.258,0.235,north-northeast,1.4,No
2015/05/11,05:00,0.561,0.340,0.604,0.558,0.479,0.259,0.234,north-northwest,3.5,No
2015/05/11,05:10,0.563,0.340,0.602,0.560,0.482,0.259,0.235,north-northwest,4.2,No
2015/05/11,05:20,0.561,0.340,0.600,0.559,0.482,0.260,0.235,north-northwest,3.3,No
2015/05/11,05:30,0.561,0.339,0.605,0.560,0.479,0.259,0.235,north-northeast,1.1,No
2015/05/11,05:40,0.563,0.340,0.604,0.558,0.481,0.260,0.235,-,CALM,No
2015/05/11,05:50,0.561,0.337,0.604,0.559,0.479,0.260,0.234,east,0.7,No
2015/05/11,06:00,0.562,0.339,0.603,0.557,0.481,0.260,0.233,southeast,1.6,No
2015/05/11,06:10,0.561,0.340,0.603,0.559,0.479,0.259,0.234,northeast,0.7,No
2015/05/11,06:20,0.559,0.338,0.600,0.559,0.478,0.260,0.233,-,CALM,No
2015/05/11,06:30,0.563,0.342,0.605,0.557,0.482,0.260,0.234,southeast,0.9,No
2015/05/11,06:40,0.561,0.338,0.601,0.562,0.479,0.260,0.232,-,CALM,No
2015/05/11,06:50,0.560,0.338,0.604,0.555,0.483,0.260,0.234,south,0.7,No
2015/05/11,07:00,0.559,0.337,0.599,0.558,0.481,0.260,0.234,-,CALM,No
2015/05/11,07:10,0.561,0.339,0.603,0.554,0.482,0.259,0.234,south-southeast,1.1,No
2015/05/11,07:20,0.560,0.336,0.595,0.557,0.482,0.261,0.235,west,0.8,No
2015/05/11,07:30,0.559,0.339,0.600,0.551,0.481,0.259,0.232,northwest,1.2,No
2015/05/11,07:40,0.559,0.337,0.599,0.558,0.485,0.259,0.233,-,CALM,No
2015/05/11,07:50,0.560,0.337,0.598,0.556,0.480,0.259,0.234,south-southeast,1.6,No
2015/05/11,08:00,0.558,0.340,0.604,0.552,0.484,0.259,0.232,south-southeast,2.2,No
2015/05/11,08:10,0.560,0.337,0.598,0.559,0.479,0.260,0.234,south,1.6,No
2015/05/11,08:20,0.555,0.339,0.605,0.556,0.480,0.258,0.236,south,3.1,No
2015/05/11,08:30,0.561,0.341,0.602,0.553,0.483,0.259,0.232,south-southwest,3.9,No
2015/05/11,08:40,0.558,0.336,0.605,0.559,0.478,0.260,0.235,south,3.6,No
2015/05/11,08:50,0.558,0.340,0.601,0.555,0.483,0.260,0.234,south,2.9,No
2015/05/11,09:00,0.563,0.338,0.606,0.553,0.480,0.260,0.232,south-southeast,3.6,No
2015/05/11,09:10,0.556,0.335,0.603,0.562,0.481,0.258,0.236,south,3.7,No
2015/05/11,09:20,0.555,0.339,0.604,0.555,0.484,0.260,0.235,south-southeast,3.7,No
2015/05/11,09:30,0.561,0.337,0.600,0.553,0.477,0.258,0.233,south-southeast,4.5,No
2015/05/11,09:40,0.558,0.338,0.606,0.561,0.485,0.258,0.236,south,4.0,No
2015/05/11,09:50,0.558,0.339,0.598,0.558,0.483,0.259,0.234,south,3.8,No
2015/05/11,10:00,0.562,0.336,0.606,0.553,0.477,0.258,0.233,south,3.4,No
2015/05/11,10:10,0.561,0.340,0.600,0.558,0.485,0.258,0.235,south,3.5,No
2015/05/11,10:20,0.554,0.340,0.599,0.560,0.482,0.259,0.235,south-southeast,3.6,No
2015/05/11,10:30,0.560,0.337,0.602,0.556,0.479,0.259,0.232,southeast,4.1,No
2015/05/11,10:40,0.562,0.339,0.599,0.553,0.486,0.259,0.234,south-southeast,4.1,No
2015/05/11,10:50,0.554,0.339,0.597,0.560,0.481,0.259,0.236,south-southeast,3.4,No
2015/05/11,11:00,0.557,0.336,0.607,0.560,0.477,0.258,0.234,south,3.9,No
2015/05/11,11:10,0.562,0.342,0.600,0.554,0.483,0.260,0.236,south-southeast,4.2,No
2015/05/11,11:20,0.558,0.338,0.597,0.556,0.483,0.258,0.235,south,5.0,No
2015/05/11,11:30,0.555,0.338,0.601,0.562,0.478,0.260,0.234,south,4.5,No
2015/05/11,11:40,0.562,0.341,0.603,0.559,0.481,0.259,0.235,south-southeast,4.0,No
2015/05/11,11:50,0.561,0.337,0.599,0.555,0.484,0.258,0.235,south,5.2,No
2015/05/11,12:00,0.557,0.340,0.596,0.561,0.480,0.259,0.235,south,6.0,No
2015/05/11,12:10,0.564,0.340,0.605,0.559,0.479,0.258,0.235,south-southeast,5.7,No
2015/05/11,12:20,0.562,0.338,0.603,0.555,0.486,0.259,0.235,south,6.6,No
2015/05/11,12:30,0.558,0.341,0.598,0.557,0.481,0.259,0.236,south,7.4,No
2015/05/11,12:40,0.565,0.340,0.595,0.561,0.478,0.259,0.236,south,5.9,No
2015/05/11,12:50,0.565,0.337,0.603,0.558,0.485,0.260,0.234,south,6.0,No
2015/05/11,13:00,0.560,0.341,0.604,0.554,0.485,0.259,0.235,south,7.8,No
2015/05/11,13:10,0.566,0.340,0.601,0.558,0.479,0.258,0.235,south,7.1,No
2015/05/11,13:20,0.561,0.337,0.598,0.563,0.478,0.258,0.235,south,8.1,No
2015/05/11,13:30,0.559,0.341,0.596,0.558,0.483,0.261,0.236,south,7.2,No
2015/05/11,13:40,0.565,0.340,0.599,0.554,0.484,0.258,0.234,south,8.1,No
2015/05/11,13:50,0.561,0.338,0.603,0.554,0.482,0.258,0.235,south,8.7,No
2015/05/11,14:00,0.562,0.338,0.605,0.563,0.478,0.259,0.236,south,7.9,No
2015/05/11,14:10,0.562,0.341,0.600,0.561,0.479,0.259,0.234,south,7.1,No
2015/05/11,14:20,0.561,0.338,0.598,0.556,0.483,0.259,0.235,south,7.6,No
2015/05/11,14:30,0.554,0.337,0.598,0.554,0.483,0.261,0.237,south,7.7,No
2015/05/11,14:40,0.562,0.341,0.602,0.564,0.480,0.259,0.234,south,9.5,No
2015/05/11,14:50,0.564,0.340,0.606,0.560,0.478,0.258,0.235,south,9.3,No
2015/05/11,15:00,0.559,0.336,0.605,0.556,0.483,0.260,0.236,south,8.9,No
2015/05/11,15:10,0.566,0.339,0.603,0.564,0.484,0.260,0.233,south,8.9,No
2015/05/11,15:20,0.564,0.340,0.598,0.561,0.483,0.258,0.236,south,10.6,No
2015/05/11,15:30,0.560,0.337,0.606,0.563,0.480,0.260,0.234,south,11.2,No
2015/05/11,15:40,0.563,0.342,0.607,0.562,0.486,0.260,0.236,south,11.6,No
2015/05/11,15:50,0.559,0.341,0.599,0.561,0.485,0.260,0.234,south,10.9,No
2015/05/11,16:00,0.565,0.341,0.611,0.564,0.481,0.260,0.236,south,10.4,No
2015/05/11,16:10,0.563,0.341,0.607,0.560,0.485,0.259,0.236,south,10.7,No
2015/05/11,16:20,0.561,0.341,0.608,0.565,0.488,0.260,0.237,south,9.3,No
2015/05/11,16:30,0.564,0.342,0.607,0.558,0.481,0.260,0.235,south,9.5,No
2015/05/11,16:40,0.560,0.340,0.604,0.564,0.484,0.258,0.236,south-southwest,9.8,No
2015/05/11,16:50,0.566,0.343,0.607,0.558,0.488,0.260,0.235,south-southwest,8.3,No
2015/05/11,17:00,0.562,0.341,0.603,0.563,0.482,0.260,0.237,south-southwest,7.4,No
2015/05/11,17:10,0.563,0.341,0.608,0.559,0.486,0.260,0.236,south,5.6,No
2015/05/11,17:20,0.563,0.337,0.600,0.563,0.483,0.261,0.235,south,8.3,No
2015/05/11,17:30,0.560,0.342,0.607,0.561,0.484,0.259,0.236,south,7.5,No
2015/05/11,17:40,0.564,0.339,0.605,0.561,0.484,0.261,0.235,south,7.9,No
2015/05/11,17:50,0.559,0.341,0.605,0.561,0.484,0.259,0.237,south,8.4,No
2015/05/11,18:00,0.565,0.339,0.607,0.560,0.487,0.260,0.235,south,9.2,No
2015/05/11,18:10,0.561,0.341,0.604,0.564,0.483,0.260,0.236,south-southwest,8.9,No
2015/05/11,18:20,0.565,0.341,0.605,0.561,0.487,0.259,0.235,south-southwest,9.2,No
2015/05/11,18:30,0.559,0.340,0.604,0.563,0.483,0.259,0.235,south,8.6,No
2015/05/11,18:40,0.567,0.339,0.607,0.561,0.485,0.262,0.236,south,7.2,No
2015/05/11,18:50,0.559,0.341,0.603,0.562,0.485,0.261,0.235,south-southwest,6.8,No
2015/05/11,19:00,0.566,0.340,0.606,0.562,0.485,0.261,0.236,south,7.5,No
2015/05/11,19:10,0.562,0.342,0.604,0.560,0.484,0.259,0.237,south,8.6,No
2015/05/11,19:20,0.566,0.340,0.606,0.561,0.483,0.259,0.235,south-southwest,8.6,No
2015/05/11,19:30,0.559,0.340,0.602,0.560,0.486,0.260,0.236,south-southwest,8.1,No
2015/05/11,19:40,0.566,0.340,0.607,0.563,0.482,0.261,0.236,south-southwest,8.1,No
2015/05/11,19:50,0.560,0.339,0.603,0.561,0.487,0.260,0.236,south-southwest,8.6,No
2015/05/11,20:00,0.564,0.341,0.605,0.564,0.483,0.259,0.235,south-southwest,8.7,No
2015/05/11,20:10,0.561,0.339,0.606,0.559,0.486,0.261,0.235,south,8.1,No
2015/05/11,20:20,0.563,0.341,0.604,0.563,0.483,0.259,0.236,south-southwest,8.4,No
2015/05/11,20:30,0.563,0.341,0.604,0.558,0.484,0.260,0.235,south-southwest,9.8,No
2015/05/11,20:40,0.560,0.339,0.605,0.563,0.483,0.261,0.235,south-southwest,10.9,No
2015/05/11,20:50,0.564,0.341,0.606,0.561,0.483,0.260,0.234,south-southwest,11.9,No
2015/05/11,21:00,0.562,0.339,0.602,0.560,0.486,0.259,0.235,south-southwest,11.7,No
2015/05/11,21:10,0.564,0.340,0.608,0.559,0.483,0.260,0.236,south-southwest,10.3,No
2015/05/11,21:20,0.560,0.340,0.603,0.562,0.485,0.261,0.235,south-southwest,8.9,No
2015/05/11,21:30,0.565,0.339,0.607,0.562,0.482,0.260,0.237,south-southwest,8.4,No
2015/05/11,21:40,0.559,0.340,0.603,0.558,0.485,0.262,0.235,south-southwest,8.3,No
2015/05/11,21:50,0.564,0.340,0.606,0.563,0.484,0.259,0.236,south-southwest,9.7,No
2015/05/11,22:00,0.560,0.341,0.603,0.559,0.483,0.261,0.236,south-southwest,9.5,No
2015/05/11,22:10,0.564,0.340,0.607,0.564,0.482,0.260,0.235,south-southwest,8.9,No
2015/05/11,22:20,0.558,0.340,0.602,0.559,0.483,0.261,0.235,south-southwest,8.9,No
2015/05/11,22:30,0.563,0.341,0.608,0.564,0.486,0.260,0.236,south-southwest,8.9,No
2015/05/11,22:40,0.563,0.339,0.603,0.560,0.482,0.260,0.236,south-southwest,9.2,No
2015/05/11,22:50,0.562,0.340,0.605,0.562,0.486,0.258,0.236,south-southwest,9.2,No
2015/05/11,23:00,0.563,0.339,0.604,0.561,0.481,0.260,0.236,south-southwest,9.1,No
2015/05/11,23:10,0.562,0.340,0.606,0.562,0.486,0.260,0.236,south-southwest,10.4,No
2015/05/11,23:20,0.564,0.339,0.605,0.563,0.483,0.259,0.236,south-southwest,10.3,No
2015/05/11,23:30,0.561,0.338,0.605,0.561,0.485,0.261,0.234,south-southwest,9.9,No
2015/05/11,23:40,0.565,0.341,0.604,0.562,0.483,0.261,0.237,south-southwest,7.8,No
2015/05/11,23:50,0.558,0.338,0.605,0.560,0.482,0.260,0.236,south-southwest,6.0,No
